Weather Roundup
Issued by NWS Chicago, IL

Home | Current Version | Previous Version | Graphics & Text | Print | Product List | Glossary Off
Versions: 1 2 3 4 5 6 7 8 9 10 11 12 13 14 15 16 17 18 19 20 21 22 23 24 25 26 27 28 29 30 31 32 33 34 35 36 37 38 39 40 41 42 43 44 45 46 47 48 49 50

000
NZUS59 KLOT 272221
HRRLOT

CHICAGO AREA WEATHER ROUNDUP
NATIONAL WEATHER SERVICE CHICAGO/ROMEOVILLE IL
500 PM CDT MON APR 27 2015

NOTE: "FAIR" INDICATES FEW OR NO CLOUDS BELOW 12,000 FEET WITH NO
SIGNIFICANT WEATHER AND/OR OBSTRUCTIONS TO VISIBILITY.

* THESE STATIONS ARE NOT UNDER NWS QUALITY CONTROL. THEY ALSO MAY NOT
  REPORT WEATHER SUCH AS PRECIPITATION OR FOG.

ILZ005-006-012>014-019>023-272300-
NORTHEAST ILLINOIS

CITY           SKY/WX    TMP DP  RH WIND       PRES   REMARKS
OHARE          MOSUNNY   51  33  50 NE17      30.12S
MIDWAY         MOSUNNY   52  34  50 NE20      30.13S
AURORA         SUNNY     60  37  42 NE17      30.09R
LANSING*       SUNNY     48  32  52 N14G20    30.13S
JOLIET*        SUNNY     58  39  48 NE12      30.09S
WAUKEGAN       SUNNY     48  34  58 N14G20    30.13S
DUPAGE AIRPORT SUNNY     55  36  48 E15       30.10R
WHEELING       SUNNY     50  33  52 NE14      30.15S
KANKAKEE*      SUNNY     56  38  52 NE16      30.10R
MORRIS*        SUNNY     62  35  36 N7G16     30.06S
LEWIS AIRPORT* SUNNY     56  35  46 E16       30.10R
NORTHERLY IS     N/A     46  36  68 N10         N/A
$$

WIZ051-052-058>065-066-070>072-272300-
SOUTHEAST WISCONSIN

CITY           SKY/WX    TMP DP  RH WIND       PRES   REMARKS
MILWAUKEE      MOSUNNY   45  32  60 N9        30.15S
KENOSHA*       SUNNY     52  35  52 NE13      30.13S
RACINE*        MOSUNNY   49  34  56 N12       30.15R
BURLINGTON     SUNNY     54  34  47 E10       30.12S
WAUKESHA       MOSUNNY   52  36  54 E10       30.13S
WEST BEND      MOSUNNY   52  34  50 E8        30.11S
$$

INZ001>003-010>013-019-020-272300-
NORTHWEST INDIANA

CITY           SKY/WX    TMP DP  RH WIND       PRES   REMARKS
GARY*          MOSUNNY   48  32  53 N17       30.14R
MICHIGAN CITY* NOT AVBL
RENSSELAER*    NOT AVBL
VALPARAISO     SUNNY     49  33  54 N15G23    30.10S
$$

LMZ740>746-272300-
SOUTHERN LAKE MICHIGAN

STATION/POSITION TIME  SKY/WX   TEMP WIND        PRES    VSBY
                                AIR  DIR/SP/G
                 (UTC)          (F)  (DEG/KT/KT) (MB)    (MI)
HARRISON CRIB    2200            42  350/  9/ 11   N/A
BURNHAM HARBOR   2200            45  340/ 10/ 13   N/A
CALUMET HARBOR   2100            46  350/  9/ 13   N/A
BURNS HARBOR     2100            44   10/  9/ 10 1020.7S
MICHIGAN CITY    2200            41  360/ 17/ 20   N/A
$$

ABBREVIATIONS USED IN REMARKS
   TC - TEMPERATURE IN CELSIUS
  WCI - WIND CHILL INDEX
   HX - HEAT INDEX
  VSB - VISIBILITY
$$


USA.gov is the U.S. government's official web portal to all federal, state and local government web resources and services.